Change the Weather History Date:

Saturday, February 8, 2014

  Actual Average Record
Temperature  
Mean Temperature 52 °F -  
Max Temperature 64 °F 66 °F 80 °F (2006)
Min Temperature 39 °F 43 °F 33 °F (2012)
Degree Days  
Heating Degree Days 14    
Growing Degree Days 2 (Base 50)    
Moisture  
Dew Point 46 °F    
Average Humidity 86    
Maximum Humidity 100    
Minimum Humidity 45    
Precipitation  
Precipitation 0.00 in - - ()
Sea Level Pressure  
Sea Level Pressure 29.88 in    
Wind  
Wind Speed 1 mph ()    
Max Wind Speed 8 mph    
Max Gust Speed -    
Visibility 2.4 miles    
Events Fog    
Averages and records for this station are not official NWS values.
T = Trace of Precipitation, MM = Missing Value Source: Averaged Metar Reports

Daily Weather History Graph

Daily Weather History Graph

Search for Another Location

Airport or City:

Trip Planner

Search our weather history database for the weather conditions in past years. The results will help you decide how hot, cold, wet, or windy it might be!

Date:

Astronomy

Feb. 08, 2014 Rise Set
Actual Time 7:19 AM IST 6:11 PM IST
Civil Twilight 6:53 AM IST 6:36 PM IST
Nautical Twilight 6:25 AM IST 7:05 PM IST
Astronomical Twilight 5:56 AM IST 7:33 PM IST
Moon 12:50 PM IST (2/8) 2:02 AM IST (2/8)
Length of Visible Light 11h 42m
Length of Day
10h 52m
Waxing Gibbous, 64% of the Moon is Illuminated
Feb 8
Waxing Gibbous
Feb 15
Full
Feb 22
Last Quarter
Mar 1
New
Mar 8
First Quarter

Hourly Weather History & Observations

Time (IST) Temp. Dew Point Humidity Pressure Visibility Wind Dir Wind Speed Gust Speed Precip Events Conditions
12:00 AM 48.2 °F 48.2 °F 100% 29.89 in 0.8 mi Calm Calm - N/A   Partly Cloudy
1:30 AM 44.6 °F 44.6 °F 100% 29.89 in 0.0 mi Calm Calm - N/A Fog Fog
2:00 AM 44.6 °F 44.6 °F 100% 29.89 in - Calm Calm - N/A Fog Fog
2:30 AM 42.8 °F 42.8 °F 100% 29.86 in - Calm Calm - N/A Fog Fog
3:00 AM 42.8 °F 42.8 °F 100% 29.86 in - Calm Calm - N/A Fog Fog
3:30 AM 42.8 °F 42.8 °F 100% 29.86 in - Calm Calm - N/A Fog Fog
4:00 AM 42.8 °F 42.8 °F 100% 29.86 in - Calm Calm - N/A Fog Fog
4:30 AM 42.8 °F 42.8 °F 100% 29.86 in - Calm Calm - N/A Fog Fog
5:00 AM 42.8 °F 42.8 °F 100% 29.86 in - Calm Calm - N/A Fog Fog
5:30 AM 42 °F 42 °F 100% 29.88 in 0 mi Calm Calm - - Fog Heavy Fog
5:30 AM 42.8 °F 42.8 °F 100% 29.86 in - Calm Calm - N/A Fog Fog
6:00 AM 41.0 °F 41.0 °F 100% 29.86 in - Calm Calm - N/A Fog Fog
6:30 AM 41.0 °F 41.0 °F 100% 29.86 in - Calm Calm - N/A Fog Fog
7:00 AM 41.0 °F 41.0 °F 100% 29.86 in - Calm Calm - N/A Fog Fog
7:30 AM 41.0 °F 41.0 °F 100% 29.89 in - Calm Calm - N/A Fog Fog
8:00 AM 41.0 °F 41.0 °F 100% 29.89 in - Calm Calm - N/A Fog Fog
8:30 AM 41 °F 41 °F 100% 29.93 in 0 mi Calm Calm - - Fog Heavy Fog
8:30 AM 41.0 °F 41.0 °F 100% 29.89 in - Calm Calm - N/A Fog Fog
9:00 AM 42.8 °F 42.8 °F 100% 29.92 in - Calm Calm - N/A Fog Fog
9:30 AM 44.6 °F 44.6 °F 100% 29.92 in - Calm Calm - N/A Fog Fog
11:00 AM 51.8 °F 51.8 °F 100% 29.95 in 0.5 mi Calm Calm - N/A Fog Fog
11:30 AM 53 °F 53 °F 98% 29.96 in 1 mi 2.3 mph - -   Mist
11:30 AM 51.8 °F 51.8 °F 100% 29.95 in 1.2 mi Variable 2.3 mph - N/A   Scattered Clouds
12:00 PM 51.8 °F 51.8 °F 100% 29.95 in 1.2 mi Variable 2.3 mph - N/A   Scattered Clouds
12:30 PM 57.2 °F 53.6 °F 88% 29.92 in 1.9 mi Variable 2.3 mph - N/A   Scattered Clouds
1:00 PM 60.8 °F 51.8 °F 72% 29.92 in 3.1 mi North 5.8 mph - N/A   Haze
1:30 PM 60.8 °F 51.8 °F 72% 29.89 in 3.7 mi WNW 6.9 mph - N/A   Scattered Clouds
2:00 PM 62.6 °F 51.8 °F 68% 29.89 in 3.7 mi West 6.9 mph - N/A   Mostly Cloudy
2:30 PM 62 °F 51 °F 57% 29.87 in 2 mi WNW 6.9 mph - -   Mostly Cloudy
2:30 PM 62.6 °F 50.0 °F 63% 29.89 in 3.7 mi WNW 6.9 mph - N/A   Mostly Cloudy
3:00 PM 62.6 °F 50.0 °F 63% 29.86 in 3.7 mi WNW 8.1 mph - N/A   Mostly Cloudy
3:30 PM 62.6 °F 48.2 °F 59% 29.86 in 3.7 mi West 6.9 mph - N/A   Mostly Cloudy
4:00 PM 64.4 °F 50.0 °F 59% 29.86 in 3.7 mi West 6.9 mph - N/A   Mostly Cloudy
4:30 PM 64.4 °F 48.2 °F 56% 29.86 in 3.7 mi West 8.1 mph - N/A   Scattered Clouds
5:00 PM 62.6 °F 46.4 °F 55% 29.83 in 3.7 mi West 8.1 mph - N/A   Scattered Clouds
5:30 PM 62 °F 46 °F 45% 29.84 in 2 mi West 4.6 mph - -   Scattered Clouds
5:30 PM 62.6 °F 46.4 °F 55% 29.86 in 3.7 mi West 4.6 mph - N/A   Partly Cloudy
6:00 PM 59.0 °F 50.0 °F 72% 29.86 in 3.7 mi Variable 1.2 mph - N/A   Scattered Clouds
6:30 PM 57.2 °F 50.0 °F 77% 29.86 in 3.1 mi Calm Calm - N/A   Scattered Clouds
7:00 PM 55.4 °F 50.0 °F 82% 29.86 in 2.5 mi Calm Calm - N/A   Scattered Clouds
7:30 PM 53.6 °F 48.2 °F 82% 29.86 in 2.5 mi Calm Calm - N/A   Scattered Clouds
8:00 PM 53.6 °F 48.2 °F 82% 29.86 in 2.5 mi Calm Calm - N/A   Scattered Clouds
8:30 PM 52 °F 47 °F 78% 29.88 in 2 mi Calm Calm - -   Mist
8:30 PM 51.8 °F 46.4 °F 82% 29.86 in 2.5 mi Calm Calm - N/A   Partly Cloudy
9:00 PM 51.8 °F 46.4 °F 82% 29.86 in 2.5 mi Calm Calm - N/A   Partly Cloudy
9:30 PM 51.8 °F 46.4 °F 82% 29.89 in 2.5 mi Calm Calm - N/A   Partly Cloudy
10:00 PM 50.0 °F 46.4 °F 87% 29.89 in 2.5 mi Calm Calm - N/A   Partly Cloudy
10:30 PM 50.0 °F 46.4 °F 87% 29.89 in 2.5 mi Calm Calm - N/A   Partly Cloudy
11:00 PM 48.2 °F 46.4 °F 93% 29.89 in 2.5 mi Calm Calm - N/A   Partly Cloudy
11:30 PM 47 °F 46 °F 93% 29.89 in 2 mi Calm Calm - -   Mist
11:30 PM 46.4 °F 46.4 °F 100% 29.86 in 2.5 mi Calm Calm - N/A   Partly Cloudy